Location: Breungeshain
(50.5000°N, 9.2000°E)
Time: 15:34:50
(UTC+00:00)

ISS - Visible Passes

Search period start: 25 May 2020 00:00
Search period end: 04 June 2020 00:00
Orbit: 417 x 420 km, 51.6° (Epoch: 26 May)

Date Brightness Start Highest point End Pass type
(mag) Time Alt. Az. Time Alt. Az. Time Alt. Az.
25 May -3.6 20:20:52 10° WNW 20:24:15 77° N 20:27:37 10° E visible
25 May -3.3 21:57:43 10° W 22:00:57 42° SSW 22:01:21 40° S visible
26 May -3.6 21:09:53 10° WNW 21:13:13 58° SSW 21:15:05 23° SE visible
26 May -1.3 22:47:31 10° WSW 22:48:01 12° WSW 22:48:01 12° WSW visible
27 May -3.8 20:22:04 10° WNW 20:25:26 77° SSW 20:28:48 10° ESE visible
27 May -2.2 21:59:13 10° W 22:01:47 21° SW 22:01:47 21° SW visible
28 May -2.7 21:11:11 10° W 21:14:12 30° SSW 21:15:35 22° S visible
29 May -3.1 20:23:15 10° W 20:26:29 43° SSW 20:29:24 12° SE visible
30 May -1.6 21:12:58 10° WSW 21:14:58 15° SW 21:16:11 13° SSW visible
31 May -2.0 20:24:39 10° W 20:27:19 22° SW 20:29:59 10° SSE visible
02 Jun -1.0 20:27:43 10° SW 20:27:57 10° SW 20:28:11 10° SW visible
